Home > Weather > Wittmund > Past weeks

Flag for Germany Weather for the Past 2 Weeks in Wittmund, Lower Saxony, Germany

Now
41 °F

Passing clouds.


Feels Like: 36 °F
Forecast: 39 / 51 °F
Wind: 7 mph from Southwest

Location: Wittmundhaven

Current Time: Apr 30, 2016 at 6:03:29 AM

Latest Report: Apr 30, 2016 at 4:20 AM


Visibility: N/A

Pressure: 29.95 "Hg

Humidity: 93%

Dew Point: 39 °F

Location of WittmundLocation

Historic Weather in Wittmund — Graph

°F

Wittmund Temperature Yesterday

Maximum temperature yesterday: 48 °F (at 3:20 PM)
Minimum temperature yesterday: 34 °F (at 1:20 AM)
Average temperature yesterday: 42 °F

High & Low Weather Summary for the Past Weeks

 TemperatureHumidityPressure
High54 °F (Apr 16, 12:20 PM)100% (Apr 16, 3:20 AM)30.48 "Hg (Apr 16, 3:20 AM)
Low30 °F (Apr 21, 5:20 AM)41% (Apr 21, 4:20 PM)29.33 "Hg (Apr 26, 4:20 PM)
Average42 °F79%29.87 "Hg
* Reported Apr 15 4:20 AM — Apr 30 4:20 AM, Wittmund, Weather by CustomWeather, © 2016

Note: Actual official high and low records may vary slightly from our data, if they occured in-between our weather recording intervals... More about our weather records

Advertising

Wittmund Weather History for the Previous 24 Hours

Scroll right to see more
 ConditionsComfort  
Time TempWeatherWind HumidityBarometerVisibility
4:20 AM
Sat, Apr 30
41 °FPassing clouds.7 mph93%29.95 "HgN/A
3:20 AM41 °FPassing clouds.8 mph93%29.95 "HgN/A
2:20 AM43 °FPassing clouds.12 mph87%29.95 "Hg6 mi
1:20 AM43 °FRain. Passing clouds.10 mph93%29.95 "Hg6 mi
12:20 AM43 °FLight rain. Passing clouds.10 mph93%29.92 "HgN/A
11:20 PM
Fri, Apr 29
43 °FPassing clouds.13 mph93%29.92 "HgN/A
10:20 PM41 °FPassing clouds.9 mph93%29.95 "HgN/A
9:20 PM43 °FPartly sunny.10 mph81%29.92 "HgN/A
8:20 PM45 °FBroken clouds.15 mph76%29.92 "HgN/A
7:20 PM45 °FLight rain. Broken clouds.12 mph66%29.92 "HgN/A
6:20 PM46 °FBroken clouds.22 mph57%29.89 "HgN/A
5:20 PM48 °FPartly sunny.9 mph76%29.89 "HgN/A
4:20 PM45 °FBroken clouds.8 mph87%29.89 "HgN/A
3:20 PM48 °FBroken clouds.16 mph71%29.89 "Hg5 mi
2:20 PM45 °FDrizzle. Broken clouds.18 mph81%29.86 "Hg5 mi
1:20 PM45 °FDrizzle. Broken clouds.16 mph87%29.86 "Hg5 mi
12:20 PM43 °FDrizzle. Partly sunny.10 mph87%29.86 "Hg4 mi
11:20 AM41 °FLight rain. Partly sunny.16 mph87%29.86 "Hg4 mi
11:02 AM43 °FLight rain. Partly sunny.17 mph81%29.83 "Hg4 mi
10:20 AM43 °FLight rain. Broken clouds.17 mph81%29.83 "Hg4 mi
10:00 AM45 °FLight rain. Broken clouds.20 mph76%29.83 "Hg4 mi
9:20 AM45 °FLight rain. Broken clouds.17 mph71%29.80 "Hg5 mi
8:20 AM43 °FBroken clouds.17 mph76%29.80 "Hg6 mi
7:20 AM39 °FBroken clouds.13 mph81%29.83 "Hg6 mi
6:20 AM39 °FPassing clouds.13 mph81%29.83 "Hg5 mi
Weather by CustomWeather, © 2016

See weather overviewHow to use our weather pages